Vertical_Velocity
0 2 1 -2 -2 1 -1 -0 1 1 1 -1 -1 0 0 -1 -2 -1 -0 -1 -1 -1 -0 1 -0 -0 -0 -0 -0 -0 -0 1 0 1 -1 -1 -0 -0 -2 -1 1 -1 1
-1 1 1 1 -4 -2 -2 -1 -1 -0 -1 -2 -0 0 0 1 1 -1 -1 -1 1 -0 0 -0 1 1 -1 -0 0 -1 0 -1 -1 -1 -0 -2 -3 -1 0 0 -1 1 -3
-1 -0 -1 1 -2 -1 -1 0 -0 1 0 -1 -1 -1 -1 -1 -1 -0 -1 0 -0 2 1 2 2 1 -0 -1 10 10 3 1 -1 -1 -1 -2 -1 -0 1 1 0 -2 -1
2 -1 1 -0 2 -0 -1 -1 -1 -0 0 0 1 2 -0 -1 -1 1 1 2 0 0 1 -1 -1 -1 0 1 4 -7 0 0 1 -1 -0 -0 1 1 -1 1 2 -1 -1
1 -0 -1 -1 1 -0 1 -0 0 1 0 3 3 3 -0 1 1 1 3 2 -0 1 0 1 3 -2 -2 3 -2 6 2 1 1 -0 -1 -1 1 -1 -2 -2 -2 -1 -1
0 0 0 -1 -1 -1 -2 -0 0 -2 -2 3 1 -2 -1 2 1 3 1 2 0 -0 -1 2 -1 3 -2 7 -1 9 -1 0 -0 -1 -2 1 1 -0 -1 0 -0 0 1
-1 -0 0 -1 -2 -1 -1 -2 -0 -0 -0 -0 1 -1 -0 0 -2 0 -0 -1 -1 -0 1 -0 -1 -1 -1 3 3 2 0 -1 -2 0 -1 -1 0 -1 1 1 0 -1 -1
-0 -2 -0 -2 -1 -2 -1 -1 -1 0 3 -2 1 0 -1 -0 -0 2 0 -2 -1 -1 0 0 -1 2 3 1 2 1 1 -1 0 -0 -0 1 0 1 0 -1 0 -0 0
1 -2 -2 -2 1 -2 -2 -2 0 -1 -2 1 -1 1 1 -1 -2 -1 3 -0 -0 -2 -1 -0 2 1 -0 -4 -5 -1 1 0 -0 1 1 1 1 -0 -1 -1 -1 0 0
1 1 -2 -2 0 -2 -2 0 1 -0 1 1 1 2 0 -1 -1 2 1 1 0 0 -0 -0 -0 -1 1 1 3 -1 0 0 0 1 1 2 0 -1 -2 -0 0 1 1
1 0 -2 -1 -2 -2 -1 -2 -1 -0 -0 -1 -1 1 -0 2 1 -2 0 -0 1 1 1 0 0 2 1 -0 0 -1 0 1 -0 -0 1 1 -0 0 1 -0 0 1 2
1 -0 -1 -0 -2 -2 -2 -2 -1 0 -0 -0 -1 -1 -2 -0 1 1 -1 0 1 1 2 -0 -1 1 2 -2 -3 -0 -2 -1 -1 1 1 -1 0 1 1 -1 0 0 2
0 -1 -1 -1 -0 -1 -1 -1 -2 -0 -1 -1 -0 -0 0 -1 1 2 2 1 0 -2 -1 -0 -2 -2 -0 1 2 0 -2 -1 -0 2 0 1 0 -1 -1 1 -0 1 1
-0 0 -1 -1 -0 -1 -1 1 -2 -1 -1 -0 -1 -0 2 -1 -1 1 1 -0 -1 1 0 -0 1 0 1 -0 2 1 -1 -1 0 3 1 0 1 -0 -3 -3 0 1 0
-0 0 -2 0 -1 0 -3 1 -2 -1 -2 -0 0 0 1 -0 -0 0 1 1 1 -2 -0 -0 0 0 -0 -0 0 0 0 -3 1 1 2 0 0 -0 -1 1 -1 -1 -0
-1 -1 -0 0 -1 -2 0 -1 0 -1 -2 -1 1 -1 0 1 -1 -0 0 2 4 1 -2 -1 -0 0 1 0 0 1 0 -2 0 -1 -1 1 0 -0 -0 -1 0 0 -1
-1 -1 -1 -1 -0 -1 1 -0 -1 -0 -1 -1 -1 -0 0 1 0 1 -0 0 3 2 2 -0 -1 -0 1 -0 2 1 1 -0 0 -0 -1 -1 -1 1 1 0 1 -1 -1
-2 1 -2 -1 -1 -0 0 -1 -2 -1 -2 -2 -1 -5 -1 0 -2 -0 0 0 1 3 2 0 -0 -0 -1 -1 -1 1 2 1 1 1 0 1 0 -0 -0 -0 -0 0 -0
-3 0 -5 -0 -2 -0 0 0 -1 -2 -0 -1 -2 -3 0 1 1 3 2 -0 -0 -1 -1 1 -0 1 0 -0 -1 -0 1 2 -0 0 1 0 1 1 0 -0 -1 -1 -2
-3 -1 -1 -3 -2 -1 1 0 -2 -0 -1 1 -0 -2 -0 2 4 -0 -1 -0 1 0 0 -1 -2 0 -1 0 -1 2 3 2 -0 0 0 -0 1 0 -1 -0 -0 0 -0
-0 -2 -0 -4 -3 -2 -2 1 -2 -2 -2 -1 -2 -1 1 0 1 2 1 -2 0 1 -1 -1 1 1 1 -2 1 3 3 0 -0 -1 -1 -0 -0 -0 1 2 1 1 -0
-1 -2 -1 -2 -4 -1 0 -0 1 -0 -3 -1 -1 0 -0 -1 -4 -1 0 -2 0 -0 -3 0 0 1 1 -2 3 2 1 -1 -0 -0 0 1 0 -0 1 1 0 1 2
2 -1 -3 -1 -2 -2 0 1 -3 -1 -2 -1 -1 3 -2 -0 0 -1 1 1 -1 -2 -1 1 1 1 1 -1 1 1 2 1 -0 1 -0 2 1 1 1 0 -0 -1 -0
-1 3 -2 -0 0 -2 -2 0 -2 -1 -1 -1 -1 2 -0 0 -2 -1 0 1 2 -0 0 0 0 0 -0 -1 0 -2 3 2 0 1 1 0 -0 0 1 0 1 1 0
-2 4 0 -2 1 -1 -1 -0 0 -2 -1 -1 -1 1 -0 -0 0 -0 -3 2 0 -1 -1 -1 -0 -1 -0 1 -1 -3 1 1 -0 2 1 0 2 1 1 1 2 2 0
2 3 -1 3 -0 0 -2 -0 -1 1 -3 -1 -2 1 0 -1 0 -1 2 -2 1 2 -0 -0 -1 -1 -2 -2 -1 1 -0 0 -2 -0 -1 1 -1 1 2 2 1 2 0
Height
5889 5890 5890 5891 5891 5891 5891 5892 5893 5894 5893 5893 5894 5895 5896 5897 5898 5899 5900 5901 5901 5900 5901 5901 5900 5900 5900 5900 5901 5902 5902 5902 5903 5904 5905 5905 5904 5904 5904 5904 5903 5904 5904
5890 5892 5893 5893 5893 5893 5894 5894 5895 5896 5896 5897 5897 5898 5899 5900 5901 5901 5902 5902 5901 5902 5902 5902 5901 5901 5901 5901 5902 5903 5904 5905 5906 5906 5906 5906 5906 5905 5905 5905 5905 5904 5905
5893 5894 5894 5896 5896 5895 5896 5897 5898 5898 5898 5899 5900 5900 5901 5901 5901 5902 5902 5902 5903 5903 5902 5902 5902 5903 5902 5902 5903 5904 5905 5906 5907 5907 5907 5907 5907 5907 5906 5906 5906 5907 5907
5895 5897 5896 5897 5899 5899 5899 5900 5901 5901 5902 5902 5902 5901 5901 5901 5902 5903 5904 5905 5904 5904 5903 5903 5904 5904 5904 5903 5901 5902 5907 5908 5908 5908 5908 5908 5907 5908 5907 5907 5908 5909 5909
5897 5898 5899 5900 5901 5901 5902 5903 5903 5904 5904 5903 5903 5903 5901 5901 5903 5904 5905 5906 5905 5905 5906 5906 5906 5906 5905 5904 5905 5906 5908 5909 5910 5909 5909 5908 5908 5908 5909 5909 5909 5909 5909
5899 5899 5901 5902 5903 5903 5904 5904 5905 5906 5905 5905 5903 5903 5902 5903 5904 5905 5906 5907 5907 5908 5909 5908 5908 5907 5908 5910 5909 5910 5910 5912 5912 5910 5910 5909 5909 5909 5909 5909 5910 5910 5910
5901 5901 5902 5904 5904 5905 5906 5907 5907 5908 5907 5906 5905 5904 5904 5905 5906 5907 5908 5908 5910 5910 5910 5911 5911 5910 5911 5913 5913 5913 5913 5913 5913 5912 5911 5911 5911 5911 5910 5910 5910 5910 5912
5903 5903 5904 5905 5906 5908 5908 5909 5910 5909 5909 5909 5908 5908 5908 5908 5909 5910 5910 5911 5912 5912 5913 5913 5913 5915 5916 5916 5916 5916 5915 5915 5915 5914 5914 5914 5913 5912 5911 5910 5911 5912 5914
5905 5905 5906 5907 5908 5910 5911 5912 5913 5912 5913 5913 5912 5913 5913 5913 5913 5914 5914 5915 5915 5915 5916 5916 5917 5918 5918 5918 5917 5918 5918 5917 5917 5917 5916 5917 5915 5913 5912 5913 5914 5916 5916
5907 5908 5909 5909 5911 5912 5914 5915 5915 5916 5916 5916 5916 5917 5917 5916 5918 5918 5919 5920 5920 5919 5919 5920 5920 5920 5921 5921 5921 5920 5920 5919 5919 5919 5919 5919 5918 5916 5915 5916 5918 5919 5919
5908 5910 5911 5912 5913 5914 5916 5917 5918 5918 5919 5920 5919 5920 5920 5921 5922 5923 5923 5924 5923 5923 5923 5924 5924 5924 5924 5924 5924 5923 5922 5922 5922 5922 5923 5922 5921 5920 5920 5921 5922 5922 5924
5909 5910 5913 5914 5915 5916 5918 5921 5920 5921 5922 5923 5922 5923 5923 5924 5925 5926 5927 5926 5927 5927 5927 5927 5927 5927 5927 5927 5926 5926 5925 5925 5925 5925 5926 5925 5925 5924 5925 5925 5926 5927 5928
5910 5911 5914 5915 5917 5919 5920 5922 5923 5924 5924 5926 5926 5926 5926 5926 5928 5929 5930 5929 5929 5929 5929 5930 5930 5930 5929 5929 5929 5929 5928 5927 5928 5929 5929 5928 5928 5928 5929 5930 5930 5931 5932
5911 5913 5915 5917 5919 5922 5922 5924 5925 5926 5927 5928 5929 5929 5929 5929 5930 5931 5933 5932 5932 5932 5932 5932 5932 5932 5933 5933 5933 5932 5931 5930 5932 5932 5933 5933 5933 5934 5934 5934 5934 5935 5935
5911 5914 5917 5919 5921 5923 5924 5926 5927 5928 5929 5930 5931 5932 5932 5932 5932 5934 5935 5935 5935 5935 5935 5934 5935 5935 5936 5936 5936 5936 5935 5934 5935 5935 5936 5936 5937 5937 5938 5938 5939 5939 5939
5911 5914 5918 5920 5922 5924 5926 5928 5929 5929 5931 5932 5933 5934 5935 5936 5936 5936 5938 5938 5938 5938 5937 5937 5937 5938 5939 5939 5938 5938 5939 5938 5939 5939 5940 5941 5941 5942 5942 5942 5942 5942 5942
5912 5915 5918 5921 5924 5925 5927 5928 5930 5931 5932 5934 5934 5935 5937 5938 5939 5939 5940 5940 5941 5941 5941 5940 5940 5941 5942 5941 5941 5941 5942 5943 5943 5943 5944 5945 5945 5945 5946 5945 5945 5945 5945
5913 5915 5919 5922 5925 5926 5928 5928 5930 5932 5933 5935 5936 5936 5937 5940 5940 5941 5941 5942 5942 5943 5943 5943 5943 5944 5945 5944 5944 5945 5946 5947 5947 5947 5948 5949 5949 5949 5949 5949 5949 5948 5948
5913 5915 5919 5922 5925 5927 5929 5930 5930 5932 5934 5936 5937 5937 5938 5941 5942 5941 5943 5943 5943 5944 5944 5945 5945 5946 5947 5948 5948 5948 5949 5950 5950 5950 5950 5951 5951 5952 5951 5952 5952 5952 5952
5913 5916 5918 5922 5924 5927 5930 5931 5931 5933 5934 5936 5937 5938 5940 5942 5944 5943 5944 5944 5944 5946 5946 5946 5947 5948 5950 5950 5951 5951 5952 5953 5953 5953 5953 5953 5954 5954 5955 5955 5955 5955 5955
5914 5916 5919 5922 5925 5927 5929 5932 5933 5934 5934 5935 5937 5939 5941 5942 5944 5945 5945 5945 5946 5948 5948 5948 5949 5950 5952 5953 5954 5955 5955 5955 5956 5955 5955 5956 5957 5957 5958 5958 5959 5959 5959
5912 5916 5918 5921 5925 5927 5930 5931 5934 5935 5935 5935 5938 5940 5941 5942 5943 5945 5946 5946 5948 5949 5950 5950 5951 5952 5954 5955 5956 5958 5958 5958 5957 5958 5958 5959 5960 5961 5961 5962 5963 5963 5963
5914 5916 5919 5920 5924 5928 5930 5931 5933 5935 5936 5937 5937 5940 5940 5942 5944 5945 5947 5948 5949 5950 5951 5953 5953 5954 5956 5956 5957 5959 5960 5960 5960 5960 5961 5962 5963 5964 5965 5966 5966 5967 5966
5913 5915 5919 5921 5923 5928 5930 5932 5933 5934 5937 5938 5938 5940 5942 5943 5945 5945 5948 5949 5951 5952 5953 5954 5955 5955 5956 5957 5958 5959 5961 5961 5961 5962 5964 5965 5966 5967 5968 5969 5970 5970 5970
5912 5915 5918 5921 5922 5926 5929 5933 5935 5934 5935 5937 5939 5941 5942 5944 5946 5946 5948 5951 5952 5953 5954 5954 5955 5955 5957 5958 5960 5961 5961 5962 5963 5964 5965 5966 5968 5969 5970 5971 5972 5973 5973
5911 5915 5918 5921 5922 5924 5928 5931 5933 5935 5935 5937 5940 5942 5943 5944 5946 5947 5949 5950 5952 5954 5954 5954 5955 5955 5957 5959 5960 5961 5962 5964 5964 5965 5966 5967 5968 5971 5972 5974 5975 5975 5974